Location: Newark
(51.3318°N, 0.0053°E)
Time: 11:33:46
(UTC+00:00)

UKube-1 - Visible Passes

Search period start: 25 June 2022 00:00
Search period end: 05 July 2022 00:00
Orbit: 610 x 614 km, 98.4° (Epoch: 25 June)

Date Brightness Start Highest point End Pass type
(mag) Time Alt. Az. Time Alt. Az. Time Alt. Az.
25 Jun ? 22:15:26 10° NNE 22:19:46 87° WNW 22:24:01 10° SSW visible
25 Jun ? 23:52:47 10° NNW 23:55:01 14° NW 23:57:16 10° W visible
26 Jun ? 22:30:18 10° N 22:34:35 64° WNW 22:38:50 10° SSW visible
27 Jun ? 00:08:35 10° NW 00:09:40 11° NW 00:10:44 10° WNW visible
27 Jun ? 21:09:49 10° NE 21:13:14 23° E 21:16:38 10° SE visible
27 Jun ? 22:45:13 10° N 22:49:22 47° WNW 22:53:29 10° SW visible
28 Jun ? 21:24:21 10° NNE 21:28:11 30° E 21:31:57 10° SSE visible
28 Jun ? 23:00:11 10° N 23:04:07 35° WNW 23:08:01 10° SW visible
29 Jun ? 21:39:00 10° NNE 21:43:06 41° E 21:46:56 11° SSE visible
29 Jun ? 23:15:12 10° N 23:18:50 27° WNW 23:22:27 10° WSW visible
30 Jun ? 21:53:43 10° NNE 21:57:58 56° ESE 22:01:53 12° S visible
30 Jun ? 23:30:18 10° N 23:33:32 21° WNW 23:36:44 10° WSW visible
01 Jul ? 22:08:29 10° NNE 22:12:49 78° ESE 22:16:51 12° S visible
01 Jul ? 23:45:31 10° NNW 23:48:11 16° WNW 23:50:50 10° W visible
02 Jul ? 22:23:18 10° NNE 22:27:38 77° WNW 22:31:48 11° SSW visible
03 Jul ? 00:00:57 10° NNW 00:02:48 13° NW 00:04:40 10° W visible
03 Jul ? 21:03:04 10° NE 21:06:10 19° E 21:09:14 10° SE visible
03 Jul ? 22:38:10 10° N 22:42:24 56° WNW 22:46:36 10° SSW visible
04 Jul ? 21:17:30 10° NE 21:21:06 25° E 21:24:40 10° SSE visible
04 Jul ? 22:53:05 10° N 22:57:09 41° WNW 23:01:11 10° SW visible
